Flag for Japan Weather past 2 weeks in Sendai, Japan

Now
61 °F

Clear.


Feels Like: 61 °F
Forecast: 35 / 68 °F
Wind: 10 mph from East

Location: Sendai Airport

Current Time: Mar 30, 2015 at 4:49:07 PM

Latest Report: Mar 30, 2015 at 4:00 PM


Visibility: 6 mi

Pressure: 30.04 "Hg

Humidity: 48%

Dew point: 41 °F

Location of SendaiLocation

Historic Weather in Sendai — Graph

°F

Sendai temperature yesterday

Maximum temperature yesterday: 57 °F (at 3:00 PM)
Minimum temperature yesterday: 45 °F (at 6:00 AM)
Average temperature yesterday: 54 °F

Past Weeks' High & Low Weather Summary

 TemperatureHumidityPressure
High64 °F (Mar 27, 1:03 PM)100% (Mar 17, 4:00 PM)30.42 "Hg (Mar 17, 4:00 PM)
Low32 °F (Mar 27, 6:00 AM)12% (Mar 27, 4:00 PM)29.74 "Hg (Mar 19, 1:00 PM)
Average48 °F63%30.04 "Hg
* Reported Mar 15 3:00 PM — Mar 30 3:00 PM, Sendai, Weather by CustomWeather, © 2015

Note: Actual official high and low records may vary slightly from our data, if they occured in-between our weather recording intervals... More about our weather records

Advertising

Sendai weather history for previous 24 hours

 ConditionsComfort  
Time TempWeatherWind HumidityBarometerVisibility
3:00 PM
Mon, Mar 30
63 °FPassing clouds.13 mph45%30.04 "HgN/A
2:00 PM63 °FPassing clouds.13 mph45%30.04 "HgN/A
1:00 PM61 °FPassing clouds.14 mph48%30.04 "HgN/A
12:00 PM61 °FSunny.13 mph48%30.04 "Hg10 mi
11:00 AM57 °FPassing clouds.12 mph55%30.04 "HgN/A
10:00 AM57 °FSunny.12 mph55%30.04 "Hg10 mi
9:00 AM54 °FSunny.7 mph67%30.04 "Hg10 mi
8:00 AM52 °FSunny.5 mph77%30.01 "Hg10 mi
7:00 AM48 °FPassing clouds.3 mph87%29.98 "HgN/A
6:00 AM43 °FPassing clouds.3 mph87%29.98 "HgN/A
9:00 PM
Sun, Mar 29
54 °FLight rain. Partly cloudy.2 mph67%29.92 "HgN/A
8:00 PM52 °FPassing clouds.3 mph72%29.92 "HgN/A
7:00 PM52 °FPassing clouds.7 mph72%29.89 "HgN/A
6:00 PM54 °FPassing clouds.5 mph72%29.86 "HgN/A
5:00 PM57 °FPartly sunny.8 mph44%29.86 "HgN/A
4:00 PM57 °FBroken clouds.5 mph48%29.89 "HgN/A
Weather by CustomWeather, © 2015

See weather overviewHow to use our weather pages